This demonstration page uses our WeatherBlox Daily Observations layout. Learn more.

38.88101, -77.10428

Hourly Observations for January 12, 2020

Temp ( °F °C ) Dew Point ( °F °C ) Humidity (%) Winds ( mph kmh ) Pressure ( in mb ) Visibility ( mi km ) Precip ( " mm )
12:44 am 00:44 Cloudy with Heavy Rain 66 18.9 61 16.1 84 84 SSW 22 35 29.91 1013 3 4.82802 0.001 0.001
12:46 am 00:46 Cloudy with Heavy Rain 66 19 63 17 88 88 SSW 23 37 29.92 1013 1 1.60934 0.001 0.001
12:52 am 00:52 Cloudy with Heavy Rain 67 19.4 64 17.8 91 91 WSW 30 48 29.94 1014 1.5 2.41401 0.15 3.81
12:57 am 00:57 Cloudy with Light Rain 67 19.4 64 17.8 91 91 SSW 32 52 29.93 1014 4 6.43736 0.04 1.016
1:14 am 01:14 Cloudy with Rain 65 18.3 63 17.2 93 93 SSW 20 31 29.92 1013 4 6.43736 0.09 2.286
1:52 am 01:52 Mostly Cloudy with Light Rain 58 14.4 57 13.9 97 97 S 17 28 29.88 1012 10 16.0934 0.21 5.334
2:52 am 02:52 Cloudy 67 19.4 64 17.8 91 91 S 18 30 29.89 1012 10 16.0934 0.02 0.508
3:26 am 03:26 Mostly Cloudy with Light Rain 65 18.3 63 17.2 93 93 S 15 24 29.88 1012 10 16.0934 0.001 0.001
3:52 am 03:52 Mostly Cloudy 67 19.4 63 17.2 87 87 SSW 16 26 29.88 1012 10 16.0934 0.001 0.001
4:52 am 04:52 Cloudy 68 20 63 17.2 84 84 SSW 17 28 29.9 1012 10 16.0934 0 0
5:52 am 05:52 Cloudy 67 19.4 63 17.2 87 87 SSW 13 20 29.93 1014 10 16.0934 0.001 0.001
6:52 am 06:52 Cloudy 67 19.4 62 16.7 84 84 SW 12 19 29.98 1015 10 16.0934 0 0
7:52 am 07:52 Mostly Cloudy 66 18.9 59 15 78 78 WSW 9 15 30.05 1018 10 16.0934 0 0
8:52 am 08:52 Mostly Cloudy 66 18.9 52 11.1 61 61 WSW 7 11 30.12 1020 10 16.0934 0 0
9:52 am 09:52 Mostly Cloudy 68 20 44 6.7 42 42 WSW 8 13 30.18 1022 10 16.0934 0 0
10:52 am 10:52 Sunny 68 20 43 6.1 40 40 W 13 20 30.2 1023 10 16.0934 0 0
11:09 am 11:09 Mostly Cloudy 67 19.4 44 6.7 44 44 W 14 22 30.2 1023 10 16.0934 0 0
11:52 am 11:52 Mostly Cloudy 67 19.4 45 7.2 45 45 NW 8 13 30.2 1023 10 16.0934 0 0
12:52 pm 12:52 Mostly Cloudy 69 20.6 44 6.7 41 41 WNW 9 15 30.19 1022 10 16.0934 0 0
1:52 pm 13:52 Partly Cloudy 69 20.6 43 6.1 39 39 W 14 22 30.2 1023 10 16.0934 0 0
2:52 pm 14:52 Partly Cloudy 70 21.1 43 6.1 38 38 WNW 9 15 30.22 1023 10 16.0934 0 0
3:52 pm 15:52 Partly Cloudy 67 19.4 44 6.7 44 44 N 10 17 30.23 1024 10 16.0934 0 0
4:52 pm 16:52 Mostly Sunny 63 17.2 43 6.1 48 48 N 13 20 30.25 1024 10 16.0934 0 0
5:52 pm 17:52 Partly Cloudy 59 15 42 5.6 54 54 N 10 17 30.29 1026 10 16.0934 0 0
6:52 pm 18:52 Mostly Clear 57 13.9 42 5.6 58 58 N 10 17 30.31 1026 10 16.0934 0 0
7:52 pm 19:52 Mostly Clear 54 12.2 42 5.6 64 64 N 9 15 30.34 1028 10 16.0934 0 0
8:52 pm 20:52 Mostly Clear 54 12.2 41 5 62 62 NNE 10 17 30.35 1028 10 16.0934 0 0
9:52 pm 21:52 Mostly Clear 51 10.6 41 5 69 69 NNE 9 15 30.36 1028 10 16.0934 0 0
10:52 pm 22:52 Mostly Cloudy 49 9.4 41 5 74 74 NE 8 13 30.37 1028 10 16.0934 0 0
11:52 pm 23:52 Mostly Cloudy 49 9.4 40 4.4 71 71 NE 8 13 30.37 1028 10 16.0934 0 0

Powered by AerisWeather